| time (UTC) | temp F | wind direction | speed knots | gust knots | rain 1hr in | rain 24hr in | rain mn in | humidity % | barometer mb |
| 20260502221401 | 56 | 0 | 0.0 | 0.0 | 0.00 | 0.03 | 0.03 | 81 | 1006.4 |
| 20260502220421 | 56 | 0 | 0.0 | 0.0 | 0.00 | 0.03 | 0.03 | 82 | 1006.4 |
| 20260502215409 | 57 | 0 | 0.0 | 0.0 | 0.00 | 0.03 | 0.03 | 81 | 1006.1 |
| 20260502214423 | 57 | 0 | 0.0 | 0.0 | 0.00 | 0.03 | 0.03 | 81 | 1006.1 |
| 20260502213414 | 57 | 194 | 0.0 | 0.0 | 0.00 | 0.03 | 0.03 | 83 | 1006.3 |
| 20260502212426 | 57 | 349 | 0.0 | 0.9 | 0.00 | 0.03 | 0.03 | 82 | 1006.4 |
| 20260502211413 | 56 | 349 | 0.0 | 0.0 | 0.00 | 0.03 | 0.03 | 85 | 1006.4 |
| 20260502210417 | 56 | 349 | 0.0 | 0.9 | 0.00 | 0.03 | 0.03 | 84 | 1006.4 |
| 20260502204308 | 56 | 237 | 0.0 | 0.9 | 0.00 | 0.03 | 0.03 | 84 | 1006.4 |
| 20260502202153 | 58 | 142 | 0.0 | 1.7 | 0.00 | 0.03 | 0.03 | 82 | 1006.2 |
| 20260502200016 | 58 | 74 | 0.0 | 1.7 | 0.00 | 0.03 | 0.03 | 84 | 1006.4 |
| 20260502194959 | 57 | 3 | 0.0 | 0.9 | 0.00 | 0.03 | 0.03 | 81 | 1006.5 |
| 20260502192805 | 56 | 359 | 0.0 | 1.7 | 0.00 | 0.03 | 0.03 | 84 | 1006.9 |
| 20260502191750 | 56 | 27 | 0.0 | 0.9 | 0.00 | 0.03 | 0.03 | 84 | 1006.9 |
| 20260502185630 | 57 | 307 | 0.0 | 1.7 | 0.00 | 0.03 | 0.03 | 86 | 1007.0 |
| 20260502184620 | 57 | 88 | 0.0 | 1.7 | 0.00 | 0.03 | 0.03 | 87 | 1007.0 |
| 20260502183636 | 57 | 283 | 0.0 | 1.7 | 0.00 | 0.03 | 0.03 | 89 | 1007.2 |
| 20260502180327 | 54 | 304 | 0.0 | 1.7 | 0.00 | 0.03 | 0.03 | 90 | 1007.6 |
| 20260502162833 | 53 | 359 | 0.0 | 1.7 | 0.00 | 0.03 | 0.03 | 92 | 1009.1 |
| 20260502160650 | 53 | 347 | 0.0 | 0.9 | 0.00 | 0.02 | 0.02 | 93 | 1008.9 |
| 20260502151609 | 53 | 346 | 0.0 | 0.9 | 0.00 | 0.02 | 0.02 | 93 | 1008.6 |
| 20260502150625 | 53 | 352 | 0.0 | 0.9 | 0.00 | 0.02 | 0.02 | 92 | 1008.9 |
| 20260502130459 | 52 | 70 | 0.0 | 0.9 | 0.00 | 0.00 | 0.00 | 93 | 1007.6 |
| 20260502123451 | 52 | 203 | 0.0 | 0.9 | 0.00 | 0.00 | 0.00 | 93 | 1007.2 |
| 20260502122447 | 52 | 184 | 0.0 | 0.0 | 0.00 | 0.00 | 0.00 | 93 | 1007.1 |
| 20260502120259 | 51 | 148 | 0.0 | 0.9 | 0.00 | 0.00 | 0.00 | 93 | 1007.0 |
| 20260502114105 | 51 | 134 | 0.0 | 0.0 | 0.00 | 0.00 | 0.00 | 93 | 1007.1 |
| 20260502113130 | 51 | 127 | 0.0 | 0.0 | 0.00 | 0.00 | 0.00 | 93 | 1007.1 |
| 20260502112142 | 52 | 106 | 0.0 | 0.0 | 0.00 | 0.00 | 0.00 | 93 | 1007.5 |
| 20260502111200 | 52 | 205 | 0.0 | 0.9 | 0.00 | 0.00 | 0.00 | 93 | 1007.5 |
| 20260502110156 | 52 | 135 | 0.0 | 0.0 | 0.00 | 0.00 | 0.00 | 93 | 1007.5 |
| 20260502105125 | 52 | 131 | 0.0 | 0.9 | 0.00 | 0.00 | 0.00 | 92 | 1007.4 |
| 20260502104102 | 52 | 131 | 0.0 | 0.9 | 0.00 | 0.00 | 0.00 | 93 | 1007.5 |
| 20260502103103 | 52 | 144 | 0.0 | 0.9 | 0.00 | 0.00 | 0.00 | 93 | 1007.5 |
| 20260502102117 | 52 | 148 | 0.0 | 0.9 | 0.00 | 0.00 | 0.00 | 94 | 1007.5 |
| 20260502101115 | 51 | 150 | 0.0 | 0.0 | 0.00 | 0.00 | 0.00 | 94 | 1007.5 |
| 20260502100116 | 51 | 150 | 0.0 | 0.0 | 0.00 | 0.00 | 0.00 | 94 | 1007.5 |
| 20260502091001 | 51 | 134 | 0.0 | 0.0 | 0.00 | 0.00 | 0.00 | 94 | 1007.1 |
| 20260502070752 | 51 | 60 | 0.0 | 0.0 | 0.00 | 0.00 | 0.00 | 93 | 1006.6 |
| 20260502065751 | 51 | 60 | 0.0 | 0.0 | 0.00 | 0.00 | 0.00 | 93 | 1006.8 |
| 20260502063722 | 51 | 60 | 0.0 | 0.0 | 0.00 | 0.00 | 0.00 | 93 | 1006.6 |
| 20260502062747 | 51 | 60 | 0.0 | 0.0 | 0.00 | 0.00 | 0.00 | 93 | 1006.7 |
| 20260502061733 | 51 | 60 | 0.0 | 0.0 | 0.00 | 0.00 | 0.00 | 93 | 1006.7 |
| 20260502060715 | 51 | 60 | 0.0 | 0.0 | 0.00 | 0.00 | 0.00 | 92 | 1006.8 |
| 20260502055716 | 51 | 60 | 0.0 | 0.0 | 0.00 | 0.00 | 0.00 | 92 | 1006.9 |
| 20260502054721 | 51 | 60 | 0.0 | 0.0 | 0.00 | 0.00 | 0.00 | 92 | 1006.9 |
| 20260502053726 | 51 | 60 | 0.0 | 0.0 | 0.00 | 0.00 | 0.00 | 92 | 1007.0 |
| 20260502052742 | 51 | 60 | 0.0 | 0.0 | 0.00 | 0.00 | 0.00 | 91 | 1007.4 |
| 20260502051715 | 51 | 60 | 0.0 | 0.0 | 0.00 | 0.00 | 0.00 | 91 | 1007.4 |
| 20260502050728 | 51 | 60 | 0.0 | 0.0 | 0.00 | 0.00 | 0.00 | 91 | 1007.4 |
| 20260502045659 | 51 | 60 | 0.0 | 0.0 | 0.00 | 0.00 | 0.00 | 90 | 1007.4 |
| 20260502044653 | 51 | 60 | 0.0 | 0.0 | 0.00 | 0.00 | 0.00 | 90 | 1007.4 |
| 20260502042550 | 52 | 60 | 0.0 | 0.0 | 0.00 | 0.00 | 0.00 | 89 | 1007.5 |
| 20260502041525 | 52 | 60 | 0.0 | 0.0 | 0.00 | 0.00 | 0.00 | 89 | 1007.5 |
| 20260502040459 | 52 | 60 | 0.0 | 0.0 | 0.00 | 0.00 | 0.00 | 88 | 1007.7 |
| 20260502035501 | 52 | 60 | 0.0 | 0.0 | 0.00 | 0.00 | 0.00 | 88 | 1007.9 |
| 20260502033322 | 52 | 60 | 0.0 | 0.0 | 0.00 | 0.00 | 0.00 | 88 | 1007.7 |
| 20260502032325 | 52 | 349 | 0.0 | 0.0 | 0.00 | 0.00 | 0.00 | 88 | 1007.8 |
| 20260502031319 | 52 | 0 | 0.0 | 0.0 | 0.00 | 0.00 | 0.00 | 88 | 1008.0 |
| 20260502030316 | 52 | 14 | 0.0 | 0.0 | 0.00 | 0.00 | 0.00 | 88 | 1008.0 |
| 20260502025248 | 52 | 56 | 0.0 | 2.6 | 0.00 | 0.00 | 0.00 | 88 | 1008.0 |
| 20260502024240 | 52 | 103 | 0.0 | 1.7 | 0.00 | 0.00 | 0.00 | 88 | 1008.0 |
| 20260502023222 | 52 | 77 | 0.0 | 0.9 | 0.00 | 0.00 | 0.00 | 88 | 1008.0 |
| 20260502022212 | 52 | 82 | 0.0 | 0.9 | 0.00 | 0.00 | 0.00 | 88 | 1008.1 |
| 20260502021211 | 52 | 63 | 0.0 | 1.7 | 0.00 | 0.00 | 0.00 | 88 | 1008.1 |
| 20260502020203 | 52 | 294 | 0.0 | 0.0 | 0.00 | 0.00 | 0.00 | 88 | 1008.1 |
| 20260502015140 | 52 | 294 | 0.0 | 0.0 | 0.00 | 0.00 | 0.00 | 88 | 1008.1 |
| 20260502014140 | 52 | 294 | 0.0 | 0.0 | 0.00 | 0.00 | 0.00 | 87 | 1008.2 |
| 20260502013135 | 52 | 294 | 0.0 | 0.9 | 0.00 | 0.00 | 0.00 | 87 | 1008.2 |
| 20260502012128 | 52 | 146 | 0.0 | 0.0 | 0.00 | 0.00 | 0.00 | 86 | 1008.1 |
| 20260502010010 | 52 | 146 | 0.0 | 0.0 | 0.00 | 0.00 | 0.00 | 84 | 1007.9 |
| 20260502004936 | 53 | 146 | 0.0 | 0.0 | 0.00 | 0.00 | 0.00 | 82 | 1007.9 |
| 20260502003918 | 53 | 103 | 0.0 | 0.0 | 0.00 | 0.00 | 0.00 | 81 | 1007.6 |
| 20260502001820 | 54 | 151 | 0.0 | 0.9 | 0.00 | 0.00 | 0.00 | 80 | 1007.5 |
| 20260502000747 | 54 | 0 | 0.0 | 0.0 | 0.00 | 0.00 | 0.00 | 80 | 1007.6 |
| 20260501235756 | 55 | 352 | 0.0 | 0.9 | 0.00 | 0.00 | 0.00 | 78 | 1007.6 |
| 20260501234752 | 55 | 129 | 0.0 | 0.0 | 0.00 | 0.00 | 0.00 | 77 | 1007.6 |
| 20260501233809 | 56 | 54 | 0.0 | 0.0 | 0.00 | 0.00 | 0.00 | 77 | 1007.5 |
| 20260501232825 | 56 | 96 | 0.0 | 2.6 | 0.00 | 0.00 | 0.00 | 76 | 1007.3 |
| 20260501231810 | 56 | 1 | 0.0 | 0.0 | 0.00 | 0.00 | 0.00 | 76 | 1007.3 |
| 20260501230825 | 57 | 98 | 0.0 | 1.7 | 0.00 | 0.00 | 0.00 | 76 | 1007.3 |
| 20260501225826 | 57 | 77 | 0.0 | 0.9 | 0.00 | 0.00 | 0.00 | 74 | 1007.6 |
| 20260501222456 | 57 | 2 | 0.9 | 5.2 | 0.00 | 0.00 | 0.00 | 73 | 1008.0 |